Location: *
(44.1676°S, 108.0338°E)
Time: 22:07:03
(UTC+00:00)

Daily predictions for brighter satellites

Satellite Brightness Start Highest point End
(mag) Time Altitude Azimuth Time Altitude Azimuth Time Altitude Azimuth
ISS -2.5 12:00:19 10° WSW 12:03:04 42° WNW 12:03:04 42° WNW
Cosmos 2227 Rocket 2.6 12:04:53 10° NW 12:10:32 64° WSW 12:14:38 19° SSE
Cosmos 1674 Rocket 4.2 12:07:10 10° N 12:10:16 46° NNW 12:10:16 46° NNW
PSLV R/B 4.4 12:09:56 10° S 12:14:00 47° WSW 12:17:57 10° NW
USA 267 3.4 12:15:57 37° NNE 12:18:44 68° NW 12:25:20 10° SW
In-Cosmos 22 Rocket 4.2 12:13:26 10° N 12:19:15 88° W 12:25:12 10° S
Cosmos 2151 Rocket 4.0 12:17:30 10° SSW 12:21:50 62° W 12:21:50 62° W
BREEZE-M DEB (TANK) 4.4 12:20:46 10° W 12:24:26 35° WSW 12:24:26 35° WSW
ACS3 Solar Sail 4.1 12:24:24 10° SSW 12:29:05 22° WSW 12:33:43 10° WNW
USA 59 Rocket 3.4 12:24:57 10° SW 12:33:08 25° S 12:37:41 19° SSE
NOSS 3-4 (A) 4.2 12:32:27 10° NW 12:41:19 84° SW 12:44:27 45° SSE
NOSS 3-4 (C) 4.2 12:32:34 10° NW 12:41:28 85° SW 12:44:32 45° SSE
SL-16 R/B 3.4 13:04:50 10° SW 13:09:23 39° W 13:09:23 39° W
COSMOS 2455 3.9 13:07:39 10° SW 13:12:09 42° WSW 13:12:09 42° WSW
Cosmos 2263 Rocket 4.4 13:36:18 10° WNW 13:38:40 21° W 13:38:40 21° W
USA 59 Rocket 3.3 14:17:10 10° SW 14:23:37 30° S 14:23:37 30° S
USA 59 Rocket 4.0 16:07:38 10° SW 16:09:33 17° SW 16:09:33 17° SW
ATLAS 5 CENTAUR R/B 3.4 20:13:49 50° SE 20:13:49 50° SE 20:18:43 10° SE
CZ-3 R/B 4.2 20:16:26 43° NW 20:20:37 47° NNW 20:31:08 10° ENE
Cosmos 1725 Rocket 4.5 20:32:18 53° NE 20:33:10 58° E 20:39:24 10° SSE
Cosmos 1697 Rocket 3.4 20:34:50 50° ESE 20:34:50 50° ESE 20:39:21 10° SSE
Cosmos 2263 Rocket 3.7 20:44:47 17° S 20:48:20 33° SE 20:53:20 10° ENE
ACS3 Solar Sail 3.8 20:43:21 10° ENE 20:48:27 27° ESE 20:53:38 10° S
CZ-4C R/B 4.1 20:46:22 10° N 20:54:37 44° ENE 21:01:44 10° SE
SL-16 R/B 2.8 20:54:29 10° SSE 21:00:49 68° ENE 21:06:48 11° N
Tsikada Rocket 4.3 20:56:17 10° S 21:02:46 67° E 21:09:09 10° NNE
Cosmos 2227 Rocket 2.2 21:02:28 73° S 21:02:58 81° ESE 21:08:39 10° NNE
SL-4 R/B 2.6 21:16:50 57° ESE 21:16:50 57° ESE 21:20:14 10° ESE
Cosmos 2233 Rocket 4.0 21:13:51 10° N 21:20:09 88° E 21:26:35 10° S
Cosmos 1269 Rocket 4.4 21:16:30 18° SSW 21:20:26 65° ESE 21:25:41 10° NNE
Blok-ML 4.5 21:22:54 50° SSE 21:23:28 57° SE 21:33:08 10° NE
UNK 4.1 21:20:00 10° SSE 21:24:38 65° ENE 21:29:12 10° N
Cosmos 1802 Rocket 4.1 21:24:21 53° W 21:24:38 53° WSW 21:31:01 10° S
SL-8 R/B 3.9 21:25:32 56° N 21:25:32 56° N 21:29:48 10° NE
SL-08 R/B 4.3 21:21:45 27° NNW 21:25:12 71° W 21:31:23 10° S
Cosmos 2369 4.5 21:28:02 10° N 21:33:29 52° ENE 21:39:01 10° SE
Cosmos 1818 4.3 21:29:52 19° SSW 21:33:32 50° SE 21:38:48 10° NE
Cosmos 1980 Rocket 2.2 21:31:57 19° NNW 21:36:05 85° ENE 21:41:51 10° SSE
Cosmos 1933 Rocket 3.5 21:36:10 10° N 21:40:38 89° W 21:45:10 10° S
ARIANE 5 R/B 2.7 21:38:04 10° NNE 21:43:07 73° ESE 21:48:11 10° S
Meteor 2-10 Rocket 4.0 21:44:00 39° WNW 21:45:27 46° WSW 21:51:04 10° S
Cosmos 2061 Rocket 4.0 21:40:19 10° NNW 21:46:38 62° W 21:52:57 10° S
Thor Agena Rocket 4.3 21:42:42 10° NNW 21:46:20 34° NW 21:46:20 34° NW
Cosmos 1869 Rocket 3.7 21:47:18 10° N 21:51:47 77° E 21:56:18 10° SSE
ATLAS 5 CENTAUR R/B 3.6 21:53:49 27° WSW 21:55:41 30° SW 22:01:33 10° SSE
USA 276 2.3 21:56:24 52° NE 21:56:24 52° NE 21:58:35 10° ENE
IRAS Rocket 4.3 21:53:07 10° N 21:58:34 52° WNW 22:04:03 10° SSW
Meteor 1-24 Rocket 3.5 21:54:12 10° SSW 21:59:35 69° W 22:04:52 10° N
Cosmos 2084 3.4 22:00:12 31° SW 22:02:17 73° NW 22:06:44 10° NNE
Cosmos 1953 2.6 21:58:46 10° N 22:02:27 63° E 22:06:14 10° SSE
Aureole 3 Rocket 3.8 22:00:26 10° NNE 22:03:26 38° E 22:06:22 10° SSE
NOSS 3-4 (A) 4.5 22:04:01 24° WNW 22:04:01 24° WNW 22:08:39 10° NNW
NOSS 3-4 (C) 4.4 22:04:05 25° WNW 22:04:05 25° WNW 22:08:48 10° NNW
Cosmos 407 Rocket 4.0 22:00:21 10° SSW 22:05:40 61° ESE 22:10:58 10° NNE
Meteor 1-15 Rocket 4.2 22:00:31 10° NNW 22:06:11 59° WSW 22:11:51 10° S
IGS 5A 4.0 22:02:45 10° NNE 22:06:45 59° ESE 22:10:47 10° S
Cosmos 2219 3.1 22:01:14 10° SSW 22:06:54 72° WNW 22:12:30 10° NNE
Cosmos 1703 Rocket 4.1 22:09:04 20° SW 22:11:25 34° W 22:15:24 10° NNW
SMAP 3.1 22:08:01 10° NNE 22:12:42 86° ESE 22:17:29 10° SSW
Cosmos 1328 3.6 22:09:15 10° S 22:13:02 83° E 22:16:45 10° N
Cosmos 1140 Rocket 3.4 22:09:31 10° SSW 22:14:44 66° WNW 22:19:54 10° N
SJ-6F 4.4 22:11:31 10° NNE 22:15:38 87° ESE 22:19:46 10° SSW
Meteor 1-12 Rocket 4.2 22:10:07 10° NNW 22:15:55 79° W 22:21:54 10° S
BREEZE-M DEB (TANK) 2.8 22:13:38 25° W 22:16:03 46° SSW 22:18:40 10° ESE
USA 290 4.2 22:13:20 10° S 22:16:25 31° ESE 22:19:27 10° NE
Cosmos 1844 Rocket 4.2 22:12:44 10° S 22:17:53 35° SE 22:22:58 10° ENE
Cosmos 1697 Rocket 3.7 22:16:36 23° WSW 22:18:05 25° SW 22:22:46 10° S
Cosmos 2251 Rocket 4.2 22:16:46 10° SSW 22:22:01 56° ESE 22:27:12 10° NE
USA 305 2.6 22:20:45 23° WNW 22:23:01 66° SW 22:27:03 10° SE
SL-19 R/B 3.8 22:23:02 10° NNE 22:25:52 72° ESE 22:28:58 10° SSW
Meteor 2-5 Rocket 4.0 22:21:09 10° SSW 22:26:33 43° W 22:31:48 10° NNW
SJ-12 4.1 22:24:46 10° N 22:28:29 42° W 22:32:17 10° SSW
COSMO-SKYMED 1 4.2 22:25:34 10° SSE 22:29:39 38° E 22:33:42 10° NNE
Cosmos 1072 Rocket 4.4 22:24:53 10° N 22:31:09 80° W 22:37:25 10° S
ACS3 Solar Sail 1.9 22:25:14 10° N 22:31:24 58° W 22:37:42 10° SSW
Cosmos 1461 2.9 22:30:08 19° WSW 22:32:18 41° WNW 22:35:41 10° N
Cosmos 2263 Rocket 2.6 22:27:05 10° SW 22:32:19 41° WNW 22:37:29 10° N
USA 234 3.7 22:25:59 10° SE 22:32:34 65° NE 22:39:07 10° NW
CORIOLIS 4.2 22:27:30 10° N 22:32:53 63° WNW 22:38:19 10° SSW
Cosmos 1867 4.4 22:28:03 10° NNW 22:33:17 53° ENE 22:38:32 10° SE
RESURS DK-1 2.5 22:30:00 10° SSW 22:34:03 75° ESE 22:38:04 10° NNE
Cosmos 1733 Rocket 3.2 22:30:53 10° N 22:35:21 85° E 22:39:52 10° S
CZ-2D R/B 3.8 22:34:18 10° NNW 22:37:16 28° W 22:40:19 10° SW
ATLAS 2AS CENTAUR R/B 4.2 22:33:19 10° SSW 22:39:57 34° SE 22:46:38 10° E
SL-12 R/B(2) 4.2 22:31:48 10° SW 22:40:25 88° SE 22:47:50 10° NE
CZ-4C R/B 3.1 22:34:36 10° NW 22:43:08 57° SW 22:50:10 10° SSE
SL-16 R/B 3.6 22:38:59 10° S 22:43:48 24° WSW 22:48:36 10° WNW
SJ-7 4.3 22:40:43 10° NNE 22:44:38 85° ESE 22:48:37 10° SSW
Cosmos 2227 Rocket 3.7 22:44:23 13° WSW 22:46:13 15° W 22:49:21 10° NW
Landsat 7 4.0 22:43:52 10° NNE 22:48:33 79° ESE 22:53:19 10° S
Cosmos 2082 4.1 22:46:21 10° SW 22:51:40 42° WNW 22:56:56 10° N
Cosmos 1271 Rocket 4.0 22:50:53 10° SW 22:53:18 17° W 22:55:41 10° NW
Cosmos 1900 4.3 22:48:15 10° NW 22:53:20 73° SW 22:58:25 10° SSE
SL-4 R/B 2.9 22:50:56 12° W 22:54:26 35° SSW 22:58:16 10° SE
PSLV R/B 3.6 22:59:52 10° N 23:04:03 58° W 23:08:16 10° SSW
SL-16 R/B 2.2 22:58:30 10° NNW 23:04:11 85° WSW 23:09:58 10° SSE
